Stations météo

réclame
Mon MeteoGroup
Helgoland, Allemagne (10015): Température de l'air & dewpoint: 21.04.2018 08:00:00 - 27.04.2018 08:00:00 (CEST)Helgoland, Allemagne (10015): Température de l'air 5cm: 21.04.2018 08:00:00 - 27.04.2018 08:00:00 (CEST)Helgoland, Allemagne (10015): Vitesse du vent & gusts: 21.04.2018 08:00:00 - 27.04.2018 08:00:00 (CEST)Helgoland, Allemagne (10015): Direction du vent: 21.04.2018 08:00:00 - 27.04.2018 08:00:00 (CEST)Helgoland, Allemagne (10015): reduced air pressure: 21.04.2018 08:00:00 - 27.04.2018 08:00:00 (CEST)Helgoland, Allemagne (10015): visibility: 21.04.2018 08:00:00 - 27.04.2018 08:00:00 (CEST)Helgoland, Allemagne (10015): Ensoleillement: 21.04.2018 08:00:00 - 27.04.2018 08:00:00 (CEST)Helgoland, Allemagne (10015): Quantités de précipitations: 21.04.2018 08:00:00 - 27.04.2018 08:00:00 (CEST)
Date & Time tt [°C] td [°C] tt 5cm [°C] ff [km/h] ff [knt] fx [km/h] fx [knt] dd ppp [hPa] vv [km] sd [min] rr [mm]
27.04.2018 08:00:00 7,3 6,3 7,6 24 13 29 16 SW 1012,6 5 39 0,0
27.04.2018 07:00:00 7,4 6,4 6,4 24 13 31 17 SW 1012,3 7 1 0,0
27.04.2018 06:00:00 7,2 6,2 5,9 26 14 30 16 SSW 1012,3 8 0 0,0
27.04.2018 05:00:00 7,4 6,2 6,1 26 14 31 17 SW 1012,4 10 0 0,0
27.04.2018 04:00:00 7,4 5,7 6,1 27 14 31 17 SW 1012,7 15 0 0,0
27.04.2018 03:00:00 7,2 5,5 5,7 20 11 32 17 SW 1012,8 16 0 0,0
27.04.2018 02:00:00 7,4 5,9 6,4 22 12 36 20 SW 1013,0 10 0 0,0
27.04.2018 01:00:00 7,3 5,9 5,9 25 13 32 17 SW 1013,1 11 0 0,0
27.04.2018 00:00:00 7,3 5,5 6,0 25 13 34 18 SW 1013,2 13 0 0,0
26.04.2018 23:00:00 7,3 5,4 5,9 22 12 34 19 SW 1013,1 13 0 0,0
26.04.2018 22:00:00 7,5 5,1 6,7 30 16 39 21 WSW 1013,3 15 0 0,0
26.04.2018 21:00:00 7,4 5,5 6,5 35 19 41 22 WSW 1013,0 12 11 0,0
26.04.2018 20:00:00 7,4 5,3 7,5 27 14 33 18 WSW 1012,9 15 60 0,0
26.04.2018 19:00:00 7,6 5,3 9,0 29 15 41 22 WSW 1012,7 11 60 0,0
26.04.2018 18:00:00 7,9 5,4 9,7 33 18 43 23 W 1012,6 13 45 0,0
26.04.2018 17:00:00 7,6 5,5 9,6 31 17 39 21 WSW 1012,6 14 27 0,0
26.04.2018 16:00:00 7,9 5,4 10,8 31 17 38 21 WSW 1012,4 15 52 0,0
26.04.2018 15:00:00 8,0 5,7 11,9 29 15 37 20 WSW 1012,0 13 41 0,0
26.04.2018 14:00:00 7,7 5,4 11,9 27 15 40 21 W 1011,5 14 41 0,0
26.04.2018 13:00:00 7,7 5,4 11,3 28 15 35 19 WSW 1011,1 13 58 0,0
26.04.2018 12:00:00 7,5 5,6 10,5 27 15 34 19 WSW 1010,6 12 60 0,0
26.04.2018 11:00:00 7,4 5,4 9,7 26 14 33 18 WSW 1010,1 12 60 0,0
26.04.2018 10:00:00 7,3 5,8 8,6 27 15 31 17 WSW 1009,5 16 25 0,0
26.04.2018 09:00:00 6,9 5,8 7,1 25 13 35 19 WSW 1009,0 16 0 0,1
26.04.2018 08:00:00 7,6 4,4 6,5 23 13 37 20 W 1008,4 19 0 0,5
26.04.2018 07:00:00 6,4 5,6 6,3 18 10 25 13 WSW 1008,1 14 0 0,0
26.04.2018 06:00:00 6,7 5,8 6,3 20 11 31 17 WSW 1007,8 15 0 0,0
26.04.2018 05:00:00 7,0 5,7 6,6 23 13 29 16 WSW 1007,8 19 0 0,0
26.04.2018 04:00:00 7,3 5,6 6,7 21 12 27 15 WSW 1007,8 16 0 0,0
26.04.2018 03:00:00 7,5 5,5 6,7 19 11 26 14 WSW 1008,0 23 0 0,0
26.04.2018 02:00:00 7,0 5,4 6,2 12 7 25 13 SW 1008,3 18 0 0,0
26.04.2018 01:00:00 7,0 5,7 6,1 17 9 23 13 WSW 1008,6 15 0 0,0
26.04.2018 00:00:00 6,7 5,9 5,4 18 10 26 14 WSW 1008,9 11 0 0,0
25.04.2018 23:00:00 6,8 5,8 5,7 22 12 31 17 WSW 1009,1 12 0 0,0
25.04.2018 22:00:00 6,6 5,6 5,8 27 14 40 21 WSW 1008,9 13 0 0,0
25.04.2018 21:00:00 6,8 6,1 6,8 27 15 34 18 WSW 1008,5 7 0 0,1
25.04.2018 20:00:00 7,1 6,1 7,3 22 12 27 14 WSW 1008,2 10 12 0,0
25.04.2018 19:00:00 7,4 6,1 8,5 17 9 23 13 SW 1008,4 18 3 0,0
25.04.2018 18:00:00 7,6 5,9 9,9 16 9 24 13 SW 1008,9 27 40 0,0
25.04.2018 17:00:00 7,7 5,9 12,2 22 12 30 16 WSW 1009,0 22 34 0,0
25.04.2018 16:00:00 7,7 5,5 11,4 15 8 27 15 WSW 1009,2 34 60 0,0
25.04.2018 15:00:00 7,5 5,2 12,0 25 13 33 18 WSW 1009,0 24 24 0,0
25.04.2018 14:00:00 7,3 5,4 10,0 26 14 31 17 W 1008,4 29 5 0,0
25.04.2018 13:00:00 7,0 5,0 9,4 24 13 34 18 WNW 1007,6 28 0 0,0
25.04.2018 12:00:00 6,7 5,2 8,3 26 14 41 22 WNW 1006,7 18 0 0,0
25.04.2018 11:00:00 7,6 5,1 9,7 35 19 50 27 NNW 1004,7 24 10 0,0
25.04.2018 10:00:00 6,9 5,9 7,6 44 24 56 30 NNW 1002,2 17 0 0,1
25.04.2018 09:00:00 7,0 6,7 7,3 26 14 40 22 WSW 999,9 3,0 0 0,0
25.04.2018 08:00:00 7,9 7,6 8,0 33 18 49 26 WSW 999,7 4,5 0 0,2
25.04.2018 07:00:00 8,6 8,4 8,6 31 17 44 24 SW 999,7 4,1 0 1,0
25.04.2018 06:00:00 8,5 8,2 8,5 32 17 43 23 SW 999,9 2,9 0 1,3
25.04.2018 05:00:00 8,8 8,7 8,8 35 19 42 23 SW 1000,7 3,2 0 1,3
25.04.2018 04:00:00 8,1 7,9 8,2 31 17 37 20 S 1001,9 1,7 0 0,8
25.04.2018 03:00:00 7,6 7,4 7,7 30 16 40 22 SSE 1003,4 1,8 0 0,2
25.04.2018 02:00:00 6,8 6,7 7,0 29 15 32 18 SE 1005,1 5 0 1,8
25.04.2018 01:00:00 6,5 6,4 6,7 17 9 21 11 SSE 1007,4 1,3 0 2,3
25.04.2018 00:00:00 6,6 6,5 6,8 12 6 18 10 S 1008,7 1,8 0 1,3
24.04.2018 23:00:00 6,5 6,3 6,8 15 8 18 10 SSW 1010,0 2,5 0 1,0
24.04.2018 22:00:00 6,9 6,7 7,0 11 6 24 13 W 1010,6 3,0 0 1,1
24.04.2018 21:00:00 7,0 6,5 7,0 20 11 30 16 WSW 1011,1 3,4 0 0,5
24.04.2018 20:00:00 7,4 6,1 7,5 23 12 29 16 SW 1011,3 9 0 0,0
24.04.2018 19:00:00 7,4 5,8 8,3 19 10 27 15 WSW 1011,7 11 2 0,0
24.04.2018 18:00:00 7,8 5,6 9,9 22 12 29 15 WSW 1012,2 15 51 0,0
24.04.2018 17:00:00 8,3 5,9 12,3 23 12 31 17 W 1012,1 13 60 0,0
24.04.2018 16:00:00 8,0 5,7 11,7 24 13 35 19 WSW 1012,3 10 60 0,0
24.04.2018 15:00:00 8,2 6,1 12,3 26 14 36 19 WSW 1012,2 10 29 0,0
24.04.2018 14:00:00 8,2 6,2 12,1 27 15 35 19 WSW 1012,3 9 44 0,0
24.04.2018 13:00:00 8,1 6,2 12,1 29 16 35 19 WSW 1012,1 9 45 0,0
24.04.2018 12:00:00 7,8 6,1 10,0 29 16 39 21 WSW 1011,5 9 25 0,0
24.04.2018 11:00:00 7,9 6,3 9,7 32 17 42 23 WSW 1011,1 9 47 0,0
24.04.2018 10:00:00 7,9 6,3 9,2 35 19 48 26 WSW 1010,4 8 39 0,0
24.04.2018 09:00:00 7,9 6,4 8,3 36 20 47 25 WSW 1009,9 10 0 0,0
24.04.2018 08:00:00 8,3 6,9 8,4 34 18 43 23 SW 1009,7 8 0 0,0
24.04.2018 07:00:00 8,1 7,2 7,9 35 19 42 23 SW 1009,4 5 0 0,0
24.04.2018 06:00:00 7,9 6,7 7,7 31 17 45 24 SW 1009,6 6 0 0,0
24.04.2018 05:00:00 7,8 6,5 7,7 31 17 35 19 SSW 1010,1 8 0 0,0
24.04.2018 04:00:00 7,7 6,1 7,4 28 15 34 19 SSW 1010,3 8 0 0,0
24.04.2018 03:00:00 7,5 6,0 7,1 24 13 29 16 SSW 1010,9 8 0 0,1
24.04.2018 02:00:00 7,4 5,9 7,4 22 12 27 15 S 1011,9 11 0 0,0
24.04.2018 01:00:00 7,6 5,0 6,9 23 12 27 15 SSW 1012,5 22 0 0,0
24.04.2018 00:00:00 7,4 5,0 6,9 18 10 29 16 SW 1013,4 14 0 0,0
23.04.2018 23:00:00 7,1 5,4 6,4 18 10 27 15 SW 1013,5 11 0 0,0
23.04.2018 22:00:00 6,9 5,6 5,8 21 11 31 17 SW 1013,5 9 0 0,0
23.04.2018 21:00:00 7,0 5,7 6,6 21 12 31 17 WSW 1013,5 9 0 0,0
23.04.2018 20:00:00 7,1 5,8 7,0 27 15 32 18 WSW 1013,4 9 40 0,0
23.04.2018 19:00:00 7,4 5,7 8,9 24 13 38 20 WSW 1013,6 12 60 0,0
23.04.2018 18:00:00 8,3 6,0 10,5 29 16 35 19 W 1013,5 11 60 0,0
23.04.2018 17:00:00 7,9 5,9 11,7 24 13 32 17 WSW 1013,5 11 56 0,0
23.04.2018 16:00:00 7,9 6,0 12,0 26 14 34 19 WSW 1013,4 8 60 0,0
23.04.2018 15:00:00 8,4 6,1 12,7 29 16 35 19 WSW 1013,1 8 60 0,0
23.04.2018 14:00:00 8,3 5,9 13,0 26 14 35 19 WSW 1012,7 7 60 0,0
23.04.2018 13:00:00 8,3 5,9 12,6 27 15 34 18 WSW 1012,3 8 60 0,0
23.04.2018 12:00:00 9,0 6,1 13,7 20 11 27 15 SW 1011,8 10 60 0,0
23.04.2018 11:00:00 8,7 6,3 12,4 17 9 26 14 SW 1011,2 9 58 0,0
23.04.2018 10:00:00 7,8 6,5 10,5 14 8 21 11 WSW 1010,5 6 27 0,0
23.04.2018 09:00:00 6,8 6,7 9,4 11 6 24 13 W 1009,7 0,4 9 0,0
23.04.2018 08:00:00 7,2 6,8 7,9 20 11 38 20 WNW 1009,1 1,1 0 0,0
23.04.2018 07:00:00 7,6 6,8 7,9 29 15 36 19 W 1008,5 1,6 0 0,0
23.04.2018 06:00:00 6,9 6,1 6,2 24 13 35 19 W 1007,7 2,5 0 0,0
23.04.2018 05:00:00 8,3 6,8 7,8 23 13 32 17 WSW 1007,4 3,4 0 0,0
23.04.2018 04:00:00 8,1 7,1 7,2 16 9 22 12 SSW 1007,2 2,0 0 0,0
23.04.2018 03:00:00 7,9 7,1 7,2 10 5 35 19 W 1007,3 1,9 0 0,0
23.04.2018 02:00:00 9,0 7,7 8,6 23 12 29 16 WSW 1007,4 6 0 0,0
23.04.2018 01:00:00 10,5 8,8 9,6 25 14 32 17 SSW 1007,1 7 0 0,0
23.04.2018 00:00:00 12,8 10,1 12,1 24 13 49 26 S 1007,2 9 0 0,0
22.04.2018 23:00:00 12,1 8,2 11,2 35 19 45 25 SSE 1007,5 15 0 0,0
22.04.2018 22:00:00 12,2 7,2 11,2 27 15 39 21 ESE 1007,8 30 0 0,0
22.04.2018 21:00:00 11,7 6,7 10,9 27 14 38 20 ESE 1008,0 30 0 0,0
22.04.2018 20:00:00 11,8 6,9 12,3 28 15 31 17 ESE 1008,5 26 16 0,0
22.04.2018 19:00:00 11,8 6,8 12,2 29 15 36 20 E 1008,9 26 11 0,0
22.04.2018 18:00:00 12,5 7,1 15,9 23 13 26 14 E 1009,8 25 41 0,0
22.04.2018 17:00:00 12,4 7,0 18,1 26 14 28 15 E 1010,3 20 59 0,0
22.04.2018 16:00:00 12,4 7,3 17,9 26 14 29 16 E 1011,4 15 53 0,0
22.04.2018 15:00:00 11,1 7,0 17,8 22 12 25 13 E 1012,5 9 56 0,0
22.04.2018 14:00:00 11,3 8,2 18,8 21 11 24 13 E 1013,4 8 60 0,0
22.04.2018 13:00:00 10,1 7,9 17,0 21 11 29 16 E 1014,4 8 53 0,0
22.04.2018 12:00:00 8,7 7,2 13,5 27 14 31 17 ESE 1015,1 3,6 44 0,0
22.04.2018 11:00:00 6,9 6,9 11,0 26 14 29 16 ESE 1015,9 0,2 1 0,0
22.04.2018 10:00:00 6,1 6,1 9,0 22 12 26 14 E 1016,2 0,3 0 0,0
22.04.2018 09:00:00 5,7 5,7 7,9 19 10 22 12 ESE 1016,9 0,2 0 0,0
22.04.2018 08:00:00 5,2 5,2 6,3 19 10 21 12 ESE 1017,3 0,2 0 0,0
22.04.2018 07:00:00 4,7 4,7 5,2 16 9 18 10 ESE 1017,3 0,2 0 0,0
22.04.2018 06:00:00 4,7 4,7 5,0 11 6 16 9 E 1017,8 0,1 0 0,0
22.04.2018 05:00:00 4,6 4,6 5,0 13 7 15 8 E 1018,3 0,2 0 0,0
22.04.2018 04:00:00 4,8 4,8 5,2 11 6 14 8 E 1018,7 0,1 0 0,0
22.04.2018 03:00:00 4,6 4,6 5,0 6 3 11 6 ENE 1019,4 0,1 0 0,0
22.04.2018 02:00:00 3,8 3,8 4,3 8 4 9 5 N 1019,7 0,1 0 0,0
22.04.2018 01:00:00 3,9 3,9 4,2 6 4 10 6 N 1020,2 0,1 0 0,0
22.04.2018 00:00:00 4,6 4,6 5,0 10 5 14 7 N 1020,6 0,2 0 0,0
21.04.2018 23:00:00 5,6 5,6 6,1 8 4 14 8 NNW 1020,7 0,1 0 0,0
21.04.2018 22:00:00 6,9 6,4 5,4 8 5 10 5 WNW 1021,1 4,7 0 0,0
21.04.2018 21:00:00 7,2 6,4 6,1 8 4 11 6 WNW 1021,3 7 5 0,0
21.04.2018 20:00:00 8,2 6,7 9,1 7 4 13 7 W 1021,3 12 60 0,0
21.04.2018 19:00:00 8,7 6,9 11,4 12 6 15 8 WSW 1021,5 14 60 0,0
21.04.2018 18:00:00 9,2 6,7 13,2 11 6 16 8 W 1021,9 19 60 0,0
21.04.2018 17:00:00 8,8 6,4 14,0 14 7 17 9 W 1022,5 17 60 0,0
21.04.2018 16:00:00 9,3 6,0 15,5 11 6 18 10 WNW 1022,9 12 60 0,0
21.04.2018 15:00:00 9,0 6,2 15,6 15 8 19 10 WNW 1023,4 16 60 0,0
21.04.2018 14:00:00 8,8 6,4 14,4 14 8 19 10 W 1023,6 12 60 0,0
21.04.2018 13:00:00 9,0 6,1 15,3 11 6 18 10 WNW 1023,8 9 60 0,0
21.04.2018 12:00:00 8,3 5,9 14,1 15 8 23 12 WNW 1023,9 10 60 0,0
21.04.2018 11:00:00 8,2 5,8 12,1 16 9 22 12 WNW 1023,6 10 60 0,0
21.04.2018 10:00:00 7,9 5,9 10,2 16 9 23 12 WNW 1023,0 8 60 0,0
21.04.2018 09:00:00 6,7 5,4 8,0 17 9 26 14 WNW 1022,6 6 60 0,0
21.04.2018 08:00:00 7,0 5,9 6,9 20 11 24 13 WNW 1022,2 5 53 0,0

tt = Température de l'air
td = dewpoint
tt 5cm = Température de l'air 5cm
ff = Vitesse du vent
fx = gusts
dd = Direction du vent
ppp = reduced air pressure
vv = visibility
sd = Ensoleillement
rr = Quantités de précipitations

stations d'obs. à proximité